Weather History for Point Salines, Grenada

Change the Weather History Date:

Monday, September 2, 2013

  Actual Average Record
Temperature  
Mean Temperature 84 °F -  
Max Temperature 90 °F 85 °F 90 °F (2013)
Min Temperature 77 °F 76 °F 75 °F (2000)
Cooling Degree Days 18    
Growing Degree Days 34 (Base 50)    
Moisture  
Dew Point 78 °F    
Average Humidity 77    
Maximum Humidity 94    
Minimum Humidity 4    
Precipitation  
Precipitation 0.00 in - - ()
Sea Level Pressure  
Sea Level Pressure 29.83 in    
Wind  
Wind Speed 2 mph ()    
Max Wind Speed 10 mph    
Max Gust Speed -    
Visibility 8.1 miles    
Events Thunderstorm    
Averages and records for this station are not official NWS values.
T = Trace of Precipitation, MM = Missing Value Source: Averaged Metar Reports

Daily Weather History Graph

Daily Weather History Graph

Search for Another Location

Airport:

Trip Planner

Search our weather history database for the weather conditions in past years. The results will help you decide how hot, cold, wet, or windy it might be!

Date:

Astronomy

Sep. 02, 2013 Rise Set
Actual Time 5:56 AM AST 6:16 PM AST
Civil Twilight 5:35 AM AST 6:37 PM AST
Nautical Twilight 5:10 AM AST 7:02 PM AST
Astronomical Twilight 4:45 AM AST 7:27 PM AST
Moon 3:27 AM AST (9/2) 4:13 PM AST (9/2)
Length of Visible Light 13h 02m
Length of Day
12h 19m
Waning Crescent, 8% of the Moon is Illuminated
Sep 2
Waning Crescent
Sep 5
New
Sep 12
First Quarter
Sep 19
Full
Sep 26
Last Quarter

Hourly Weather History & Observations

Time (AST) Temp. Heat Index Dew Point Humidity Pressure Visibility Wind Dir Wind Speed Gust Speed Precip Events Conditions
12:00 AM 82.4 °F 90.9 °F 77.0 °F 84% - 6.2 mi Calm Calm - N/A   Mostly Cloudy
1:00 AM 82.4 °F 90.9 °F 77.0 °F 84% 29.83 in 6.2 mi Calm Calm - N/A   Mostly Cloudy
2:00 AM 82 °F - 77 °F 80% 29.83 in 16 mi Calm Calm - -   Scattered Clouds
2:00 AM 82.4 °F 90.9 °F 77.0 °F 84% 29.83 in 6.2 mi Calm Calm - N/A   Mostly Cloudy
3:00 AM 82.4 °F 90.9 °F 77.0 °F 84% 29.80 in 6.2 mi Calm Calm - N/A   Mostly Cloudy
4:00 AM 82.4 °F 90.9 °F 77.0 °F 84% 29.80 in 6.2 mi Calm Calm - N/A   Mostly Cloudy
5:00 AM 79 °F - - %  in 16 mi Calm Calm - -  
5:00 AM 78.8 °F - 77.0 °F 94% 29.80 in 6.2 mi Calm Calm - N/A   Mostly Cloudy
6:00 AM 80.6 °F 87.1 °F 77.0 °F 89% 29.83 in 6.2 mi Calm Calm - N/A   Mostly Cloudy
7:00 AM 82.4 °F 92.4 °F 78.8 °F 89% 29.86 in 6.2 mi Calm Calm - N/A   Mostly Cloudy
8:00 AM 85 °F - 78 °F 74% 29.88 in 15 mi 2.3 mph - -   Widespread Dust
8:00 AM 86.0 °F 99.3 °F 78.8 °F 79% 29.86 in 6.2 mi Variable 2.3 mph - N/A   Mostly Cloudy
9:00 AM 87.8 °F 102.5 °F 78.8 °F 75% 29.89 in 6.2 mi WSW 8.1 mph - N/A   Mostly Cloudy
10:00 AM 87.8 °F 102.5 °F 78.8 °F 75% 29.89 in 6.2 mi WSW 9.2 mph - N/A   Scattered Clouds
11:00 AM 88 °F - 78 °F 67% 29.89 in 15 mi West 9.2 mph - -   Widespread Dust
11:00 AM 87.8 °F 102.5 °F 78.8 °F 75% 29.89 in 6.2 mi West 9.2 mph - N/A   Scattered Clouds
12:00 PM 89.6 °F 104.7 °F 78.8 °F 70% 29.86 in 6.2 mi West 9.2 mph - N/A   Partly Cloudy
1:00 PM 89.6 °F 104.7 °F 78.8 °F 70% 29.83 in 6.2 mi WSW 10.4 mph - N/A   Scattered Clouds
2:00 PM 89.6 °F 104.7 °F 78.8 °F 70% 29.80 in 6.2 mi WSW 9.2 mph - N/A   Scattered Clouds
3:00 PM 89.6 °F 104.7 °F 78.8 °F 70% 29.80 in 6.2 mi West 9.2 mph - N/A   Scattered Clouds
4:00 PM 87.8 °F 99.7 °F 77.0 °F 70% 29.80 in 6.2 mi West 5.8 mph - N/A   Scattered Clouds
5:00 PM 195 °F - 78 °F 4% 29.80 in 15 mi NNW 5.8 mph - -   Widespread Dust
5:00 PM 87.8 °F 102.5 °F 78.8 °F 75% 29.80 in 6.2 mi NNW 5.8 mph - N/A   Scattered Clouds
6:00 PM 86.0 °F 99.3 °F 78.8 °F 79% 29.77 in 6.2 mi NNW 6.9 mph - N/A   Mostly Cloudy
7:00 PM 84.2 °F 96.1 °F 78.8 °F 84% 29.80 in 6.2 mi Calm Calm - N/A   Partly Cloudy
8:00 PM 84 °F - 78 °F 78% 29.83 in 12 mi Calm Calm - -   Widespread Dust
8:00 PM 84.2 °F 96.1 °F 78.8 °F 84% 29.83 in 6.2 mi Calm Calm - N/A   Partly Cloudy
9:00 PM 82.4 °F 92.4 °F 78.8 °F 89% 29.83 in 6.2 mi Calm Calm - N/A   Unknown
11:00 PM 81 °F - 78 °F 88% 29.86 in 12 mi Calm Calm - -   Partly Cloudy
11:00 PM 80.6 °F 88.1 °F 78.8 °F 94% 29.83 in 6.2 mi Calm Calm - N/A Thunderstorm Scattered Clouds